Regional Weather Roundup
Issued by NWS

Home | Current Version | Previous Version | Graphics & Text | Print | Product List | Glossary On
Versions: 1 2 3 4 5 6 7 8 9 10 11 12 13 14 15 16 17 18 19 20 21 22 23 24 25 26 27 28 29 30 31 32 33 34 35 36 37 38 39 40 41 42 43 44 45 46 47 48 49 50
000
ASUS43 KDTX 022101
RWRMI
MICHIGAN HOURLY REGIONAL WEATHER ROUNDUP
NATIONAL WEATHER SERVICE DETROIT/PONTIAC MI
500 PM EDT MON MAY 02 2016

NOTE: "FAIR" INDICATES FEW OR NO CLOUDS BELOW 12,000 FEET WITH NO
SIGNIFICANT WEATHER AND/OR OBSTRUCTION TO VISIBILITY.

MIZ047>049-052>055-059>063-066>070-074>076-081>083-022200-
SOUTHEAST LOWER MICHIGAN

CITY           SKY/WX    TMP DP  RH WIND       PRES   REMARKS
ADRIAN         CLOUDY    51  45  79 CALM      30.02S
ALMA           PTSUNNY   57  40  53 E8        30.03F
ANN ARBOR      CLOUDY    53  44  71 N5        30.01F
BAD AXE        SUNNY     56  33  41 NE7       30.03F
CARO           SUNNY     60  37  42 N10       30.01S
DETROIT CITY   CLOUDY    54  42  64 CALM      30.00F
DETROIT        CLOUDY    52  43  71 E3        30.02F
FLINT          CLOUDY    57  40  52 CALM      30.02F
GROSSE ILE     CLOUDY    52  45  76 N5        30.00F
HILLSDALE      DRIZZLE   48  46  91 NE3       30.01F
HOWELL         CLOUDY    53  42  66 CALM      30.01F

CITY           SKY/WX    TMP DP  RH WIND       PRES   REMARKS
JACKSON        CLOUDY    51  44  77 NE3       30.01F
LAMBERTVILLE   CLOUDY    53  46  75 CALM      30.01F
LANSING        CLOUDY    54  42  64 E6        30.03F
LAPEER         FAIR      57  34  41 NE5       30.01F
MASON          CLOUDY    51  44  78 NE5       30.02F
MONROE         CLOUDY    53  46  77 N10       30.00F
MT. CLEMENS    CLOUDY    54  44  68 VRB2      30.00F
PONTIAC        CLOUDY    54  41  61 NE3       30.00F
PORT HOPE        N/A     48  40  73 CALM      30.02F
TRI CITIES     SUNNY     59  35  40 NE8       30.04S
MIDLAND        FAIR      58  30  34 E9        30.03F
TROY           CLOUDY    55  43  65 N3        30.02F
SAGINAW HB     SUNNY     57  37  47 N12       30.02F
$$
MIZ043>046-050>051-056>058-064>065-071>073-077>080-022200-
SOUTHWEST LOWER MICHIGAN

CITY           SKY/WX    TMP DP  RH WIND       PRES   REMARKS
BATTLE CREEK   CLOUDY    53  43  68 NE6       30.02F
BENTON HARBOR  CLOUDY    50  38  63 VRB5      30.03F
BIG RAPIDS     CLOUDY    59  28  31 CALM      30.00F
COLDWATER      CLOUDY    50  48  93 NE5       30.01F
FREMONT        CLOUDY    60  33  36 SE6       30.00F
HOLLAND        CLOUDY    51  40  65 W6        30.04S
GRAND RAPIDS   CLOUDY    56  42  59 E5        30.03F
IONIA          CLOUDY    54  42  63 E3        30.02F
KALAMAZOO      CLOUDY    55  43  63 VRB5      30.02F
LUDINGTON      PTSUNNY   60  33  37 N16G22    30.02F
MARSHALL       CLOUDY    53  44  73 CALM      30.02F
MOUNT PLEASANT SUNNY     60  31  33 E12G17    30.01F
MUSKEGON       PTSUNNY   54  40  59 SW8       30.02F
SOUTH HAVEN    CLOUDY    48  39  70 N5        30.03F
$$
MIZ016>042-022200-
NORTHERN LOWER MICHIGAN

CITY           SKY/WX    TMP DP  RH WIND       PRES   REMARKS
ALPENA         MOSUNNY   62  30  29 SE8       30.01F
BEAVER ISLAND  SUNNY     57  34  41 W9        30.03S
BELLAIRE       MOSUNNY   62  28  27 W7G16     30.01S
CADILLAC       CLOUDY    59  29  32 CALM      30.00F
CHARLEVOIX     SUNNY     59  34  39 NW8       30.05F
FRANKFORT      SUNNY     58  36  43 N10G16    30.03F
GAYLORD        CLOUDY    60  26  27 CALM      30.00F
HARBOR SPRINGS CLOUDY    49  37  62 S7        30.01F
HOUGHTON LAKE  CLOUDY    59  30  33 VRB3      30.00F
MANISTEE       MOSUNNY   55  34  44 NW14      30.03F
OSCODA         SUNNY     57  34  42 E7        30.02F
PELLSTON       PTSUNNY   62  29  28 VRB5      30.01F
ROGERS CITY    SUNNY     58  26  28 CALM      30.03S
TRAVERSE CITY  MOSUNNY   59  35  40 NE10      30.01F
$$
MIZ007>008-015-022200-
EASTERN UPPER MICHIGAN

CITY           SKY/WX    TMP DP  RH WIND       PRES   REMARKS
KINROSS          N/A     61  30  31 N12       30.00F
MACKINAC ISLAN MOSUNNY   59  32  36 SW7       30.01F
NEWBERRY       MOSUNNY   59  33  37 NW6G17    30.01F
S. S. MARIE    SUNNY     60  32  34 NW12      30.00F
MUNISING         N/A     46  39  76 NE9       30.06F
$$
MIZ004>006-011>014-085-022200-
CENTRAL UPPER MICHIGAN

CITY           SKY/WX    TMP DP  RH WIND       PRES   REMARKS
MANISTIQUE     CLOUDY    54  36  49 SW7       30.02F
ESCANABA       MOSUNNY   61  34  36 SE9       30.02S
MENOMINEE      SUNNY     61  28  29 S12G17    30.02F
SAWYER-GWINN   SUNNY     55  30  38 NE13      30.06F
$$
MIZ001>003-009>011-084-022200-
WESTERN UPPER MICHIGAN

CITY           SKY/WX    TMP DP  RH WIND       PRES   REMARKS
IRON MOUNTAIN  CLOUDY    64  26  23 NE10G18   29.99F
HOUGHTON       SUNNY     57  34  41 E7        30.03F
COPPER HARBOR    N/A     46  37  71 CALM      30.04F
IRONWOOD         N/A     59  30  33 N5        30.01F
$$

ABBREVIATIONS USED IN REMARKS
   TC - TEMPERATURE IN CELSIUS
  WCI - WIND CHILL INDEX
   HX - HEAT INDEX
  VSB - VISIBILITY





USA.gov is the U.S. government's official web portal to all federal, state and local government web resources and services.